This demonstration page uses our WeatherBlox Daily Observations layout. Learn more.

Left ArrowRight Arrow

39.01783, -85.05884

Hourly Observations for February 23, 2016

Temp ( °F °C ) Dew Point ( °F °C ) Humidity (%) Winds ( mph kmh ) Pressure ( in mb ) Visibility ( mi km ) Precip ( " mm )
12:52 am 00:52 Partly Cloudy 39 3.9 30 -1.1 70 70 NE 10 17 30.01 1016 10 16 N/A
1:52 am 01:52 Mostly Clear 37 2.8 29 -1.7 73 73 NNE 14 22 30.02 1017 10 16 N/A
2:52 am 02:52 Clear 36 2.2 28 -2.2 73 73 NNE 10 17 30.02 1017 10 16 N/A
3:52 am 03:52 Clear 34 1.1 27 -2.8 76 76 NE 12 19 30.00 1016 10 16 N/A
4:52 am 04:52 Clear 33 0.6 26 -3.3 75 75 NNE 13 20 29.99 1016 10 16 N/A
5:52 am 05:52 Mostly Clear 33 0.6 25 -3.9 72 72 NE 10 17 30.00 1016 10 16 N/A
6:52 am 06:52 Partly Cloudy 32 undefined 25 -3.9 75 75 NE 10 17 30.00 1016 10 16 N/A
7:52 am 07:52 Mostly Sunny 33 0.6 24 -4.4 70 70 NE 10 17 29.98 1015 10 16 N/A
8:52 am 08:52 Mostly Sunny 35 1.7 25 -3.9 67 67 NNE 9 15 30.01 1016 10 16 N/A
9:52 am 09:52 Partly Cloudy 40 4.4 27 -2.8 60 60 NE 8 13 30.02 1017 10 16 N/A
10:52 am 10:52 Sunny 44 6.7 29 -1.7 55 55 NE 7 11 30.01 1016 10 16 N/A
11:52 am 11:52 Mostly Sunny 48 8.9 32 undefined 54 54 ENE 10 17 29.97 1015 10 16 N/A
12:52 pm 12:52 Partly Cloudy 52 11.1 34 1.1 50 50 NNE 8 13 29.93 1014 10 16 N/A
1:52 pm 13:52 Mostly Cloudy 53 11.7 37 2.8 55 55 E 8 13 29.92 1013 10 16 N/A
2:52 pm 14:52 Mostly Cloudy 55 12.8 38 3.3 53 53 ENE 10 17 29.89 1012 10 16 N/A
3:52 pm 15:52 Mostly Cloudy 55 12.8 40 4.4 57 57 E 13 20 29.88 1012 10 16 N/A
4:52 pm 16:52 Mostly Cloudy 55 12.8 40 4.4 57 57 ENE 12 19 29.86 1011 10 16 N/A
5:52 pm 17:52 Cloudy 53 11.7 40 4.4 61 61 ENE 14 22 29.85 1011 10 16 N/A
6:52 pm 18:52 Cloudy 53 11.7 41 5 64 64 ENE 14 22 29.84 1010 10 16 N/A
7:52 pm 19:52 Cloudy 52 11.1 40 4.4 64 64 ENE 17 28 29.81 1010 10 16 N/A
8:52 pm 20:52 Cloudy 51 10.6 39 3.9 64 64 ENE 13 20 29.79 1009 10 16 N/A
9:52 pm 21:52 Cloudy 51 10.6 39 3.9 64 64 NE 15 24 29.76 1008 10 16 N/A
10:52 pm 22:52 Cloudy 50 10 38 3.3 63 63 NE 15 24 29.71 1006 10 16 N/A
11:52 pm 23:52 Cloudy with Rain 47 8.3 40 4.4 77 77 ENE 14 22 29.69 1005 5 8 0.01 0.25

Powered by AerisWeather